Location: ???????
(55.2903°N, 39.1554°E)
Time: 12:16:03
(UTC+00:00)

ALOS - Pass Details

Date: 14 April 2024
Orbit: 674 x 676 km, 98.0° (Epoch: 26 May)

Event Time Altitude Azimuth Distance (km) Brightness Sun altitude
Rises 00:04:27 0° 17° (NNE) 3,048 6.8 -17.0°
Reaches altitude 10° 00:06:44 10° 22° (NNE) 2,128 5.9 -16.8°
Maximum altitude 00:11:19 56° 101° (E) 808 2.8 -16.4°
Enters shadow 00:14:58 16° 177° (S) 1,763 4.0 -16.0°
